Location: Cieszkowy
(50.3290°N, 20.5336°E)
Time: 22:37:01
(UTC+00:00)

BREEZE-M R/B - Pass Details

Date: 15 June 2024
Orbit: 1071 x 14786 km, 50.7° (Epoch: 17 July)

Event Time Altitude Azimuth Distance (km) Brightness Sun altitude
Rises 01:20:21 0° 289° (WNW) 6,243 8.0 -8.1°
Reaches altitude 10° 01:25:05 10° 287° (WNW) 4,269 7.1 -7.7°
Maximum altitude 01:33:33 67° 207° (SSW) 1,239 4.4 -6.8°
Drops below altitude 10° 01:39:19 10° 125° (SE) 2,955 6.6 -6.2°
Sets 01:41:55 0° 122° (ESE) 4,119 7.4 -5.9°
